Find Tianmu 1-15

NORAD ID: 58700 Int'l Des: 2024-004 Owner: TIANMU Country: CN operational
LEOCIRCULARRETROGRADESSO

当前视图

正在加载3D地球...

关于 Tianmu 1-15

正在加载描述...

即将过境

Passes for default location (London). Set your location on the main map for personalized predictions.

高度历史

Loading altitude history...

两行轨道根数

1 58700U 24004A 26150.20810737 .00008165 00000-0 31232-3 0 9996
2 58700 97.4664 336.3980 0008272 60.1246 300.0813 15.26814481133033
Epoch: May 30, 2026 • Age: 9 hours

当前状态

高度 501.6 km
速度 7.61 km/s
星下点 -29.84°S, 57.76°E
发射日期 Jan 5, 2024
运行时间 2.3 years
类型 other

技术详情

分类 Payload
质量 50.00 kg
干质量 50.00 kg
总质量 50.00 kg
长度 1.50 m
直径 1.00 m
跨度 1.50 m
形状 Box
制造商 TIANMU
平台类型 Tianmu
阶段状态 In Orbit
所有者/国家 TIANMU/CN

Most Searched